Year,Month,Day,Hour,Minute,Value (Times are PST for windgust in km/hr)
2018,03,01,00,00,37.00
2018,03,01,00,01,27.40
2018,03,01,00,02,22.50
2018,03,01,00,03,25.70
2018,03,01,00,04,20.90
2018,03,01,00,05,27.40
2018,03,01,00,06,29.00
2018,03,01,00,07,20.90
2018,03,01,00,08,20.90
2018,03,01,00,09,20.90
2018,03,01,00,10,17.70
2018,03,01,00,11,19.30
2018,03,01,00,12,30.60
2018,03,01,00,13,16.10
2018,03,01,00,14,16.10
2018,03,01,00,15,8.10
2018,03,01,00,16,9.60
2018,03,01,00,17,27.40
2018,03,01,00,18,22.50
2018,03,01,00,19,14.50
2018,03,01,00,20,9.60
2018,03,01,00,21,11.30
2018,03,01,00,22,12.90
2018,03,01,00,23,16.10
2018,03,01,00,24,12.90
2018,03,01,00,25,16.10
2018,03,01,00,26,11.30
2018,03,01,00,27,12.90
2018,03,01,00,28,14.50
2018,03,01,00,29,12.90
2018,03,01,00,30,8.10
2018,03,01,00,31,14.50
2018,03,01,00,32,12.90
2018,03,01,00,33,11.30
2018,03,01,00,34,11.30
2018,03,01,00,35,9.60
2018,03,01,00,36,11.30
2018,03,01,00,37,14.50
2018,03,01,00,38,11.30
2018,03,01,00,39,12.90
2018,03,01,00,40,11.30
2018,03,01,00,41,11.30
2018,03,01,00,42,17.70
2018,03,01,00,43,11.30
2018,03,01,00,44,14.50
2018,03,01,00,45,11.30
2018,03,01,00,46,16.10
2018,03,01,00,47,12.90
2018,03,01,00,48,19.30
2018,03,01,00,49,22.50
2018,03,01,00,50,11.30
2018,03,01,00,51,9.60
2018,03,01,00,52,9.60
2018,03,01,00,53,20.90
2018,03,01,00,54,14.50
2018,03,01,00,55,17.70
2018,03,01,00,56,9.60
2018,03,01,00,57,17.70
2018,03,01,00,58,17.70
2018,03,01,00,59,19.30
2018,03,01,01,00,16.10
2018,03,01,01,01,17.70
2018,03,01,01,02,11.30
2018,03,01,01,03,11.30
2018,03,01,01,04,11.30
2018,03,01,01,05,14.50
2018,03,01,01,06,12.90
2018,03,01,01,07,9.60
2018,03,01,01,08,12.90
2018,03,01,01,09,14.50
2018,03,01,01,10,14.50
2018,03,01,01,11,8.10
2018,03,01,01,12,16.10
2018,03,01,01,13,17.70
2018,03,01,01,14,17.70
2018,03,01,01,15,17.70
2018,03,01,01,16,11.30
2018,03,01,01,17,20.90
2018,03,01,01,18,14.50
2018,03,01,01,19,3.20
2018,03,01,01,20,20.90
2018,03,01,01,21,12.90
2018,03,01,01,22,19.30
2018,03,01,01,23,14.50
2018,03,01,01,24,19.30
2018,03,01,01,25,16.10
2018,03,01,01,26,16.10
2018,03,01,01,27,11.30
2018,03,01,01,28,19.30
2018,03,01,01,29,9.60
2018,03,01,01,30,9.60
2018,03,01,01,31,9.60
2018,03,01,01,32,8.10
2018,03,01,01,33,9.60
2018,03,01,01,34,12.90
2018,03,01,01,35,8.10
2018,03,01,01,36,12.90
2018,03,01,01,37,11.30
2018,03,01,01,38,9.60
2018,03,01,01,39,4.80
2018,03,01,01,40,12.90
2018,03,01,01,41,14.50
2018,03,01,01,42,9.60
2018,03,01,01,43,17.70
2018,03,01,01,44,8.10
2018,03,01,01,45,16.10
2018,03,01,01,46,12.90
2018,03,01,01,47,12.90
2018,03,01,01,48,17.70
2018,03,01,01,49,14.50
2018,03,01,01,50,8.10
2018,03,01,01,51,11.30
2018,03,01,01,52,11.30
2018,03,01,01,53,12.90
2018,03,01,01,54,8.10
2018,03,01,01,55,11.30
2018,03,01,01,56,6.40
2018,03,01,01,57,9.60
2018,03,01,01,58,8.10
2018,03,01,01,59,6.40
2018,03,01,02,00,6.40
2018,03,01,02,01,9.60
2018,03,01,02,02,11.30
2018,03,01,02,03,12.90
2018,03,01,02,04,19.30
2018,03,01,02,05,27.40
2018,03,01,02,06,16.10
2018,03,01,02,07,22.50
2018,03,01,02,08,12.90
2018,03,01,02,09,8.10
2018,03,01,02,10,20.90
2018,03,01,02,11,20.90
2018,03,01,02,12,22.50
2018,03,01,02,13,17.70
2018,03,01,02,14,12.90
2018,03,01,02,15,12.90
2018,03,01,02,16,8.10
2018,03,01,02,17,14.50
2018,03,01,02,18,11.30
2018,03,01,02,19,14.50
2018,03,01,02,20,8.10
2018,03,01,02,21,9.60
2018,03,01,02,22,11.30
2018,03,01,02,23,20.90
2018,03,01,02,24,25.70
2018,03,01,02,25,8.10
2018,03,01,02,26,6.40
2018,03,01,02,27,19.30
2018,03,01,02,28,12.90
2018,03,01,02,29,14.50
2018,03,01,02,30,6.40
2018,03,01,02,31,4.80
2018,03,01,02,32,3.20
2018,03,01,02,33,4.80
2018,03,01,02,34,6.40
2018,03,01,02,35,6.40
2018,03,01,02,36,1.60
2018,03,01,02,37,3.20
2018,03,01,02,38,1.60
2018,03,01,02,39,4.80
2018,03,01,02,40,6.40
2018,03,01,02,41,3.20
2018,03,01,02,42,4.80
2018,03,01,02,43,8.10
2018,03,01,02,44,1.60
2018,03,01,02,45,1.60
2018,03,01,02,46,3.20
2018,03,01,02,47,9.60
2018,03,01,02,48,9.60
2018,03,01,02,49,8.10
2018,03,01,02,50,3.20
2018,03,01,02,51,4.80
2018,03,01,02,52,14.50
2018,03,01,02,53,16.10
2018,03,01,02,54,16.10
2018,03,01,02,55,16.10
2018,03,01,02,56,14.50
2018,03,01,02,57,17.70
2018,03,01,02,58,4.80
2018,03,01,02,59,16.10
2018,03,01,03,00,12.90
2018,03,01,03,01,16.10
2018,03,01,03,02,11.30
2018,03,01,03,03,12.90
2018,03,01,03,04,17.70
2018,03,01,03,05,16.10
2018,03,01,03,06,4.80
2018,03,01,03,07,6.40
2018,03,01,03,08,6.40
2018,03,01,03,09,14.50
2018,03,01,03,10,9.60
2018,03,01,03,11,11.30
2018,03,01,03,12,11.30
2018,03,01,03,13,11.30
2018,03,01,03,14,19.30
2018,03,01,03,15,16.10
2018,03,01,03,16,12.90
2018,03,01,03,17,9.60
2018,03,01,03,18,8.10
2018,03,01,03,19,9.60
2018,03,01,03,20,9.60
2018,03,01,03,21,8.10
2018,03,01,03,22,4.80
2018,03,01,03,23,8.10
2018,03,01,03,24,6.40
2018,03,01,03,25,8.10
2018,03,01,03,26,6.40
2018,03,01,03,27,8.10
2018,03,01,03,28,8.10
2018,03,01,03,29,4.80
2018,03,01,03,30,3.20
2018,03,01,03,31,3.20
2018,03,01,03,32,9.60
2018,03,01,03,33,11.30
2018,03,01,03,34,11.30
2018,03,01,03,35,8.10
2018,03,01,03,36,9.60
2018,03,01,03,37,17.70
2018,03,01,03,38,12.90
2018,03,01,03,39,9.60
2018,03,01,03,40,8.10
2018,03,01,03,41,12.90
2018,03,01,03,42,11.30
2018,03,01,03,43,9.60
2018,03,01,03,44,11.30
2018,03,01,03,45,11.30
2018,03,01,03,46,14.50
2018,03,01,03,47,8.10
2018,03,01,03,48,9.60
2018,03,01,03,49,16.10
2018,03,01,03,50,6.40
2018,03,01,03,51,14.50
2018,03,01,03,52,12.90
2018,03,01,03,53,6.40
2018,03,01,03,54,8.10
2018,03,01,03,55,6.40
2018,03,01,03,56,11.30
2018,03,01,03,57,6.40
2018,03,01,03,58,6.40
2018,03,01,03,59,6.40
2018,03,01,04,00,11.30
2018,03,01,04,01,16.10
2018,03,01,04,02,12.90
2018,03,01,04,03,12.90
2018,03,01,04,04,9.60
2018,03,01,04,05,12.90
2018,03,01,04,06,9.60
2018,03,01,04,07,11.30
2018,03,01,04,08,6.40
2018,03,01,04,09,9.60
2018,03,01,04,10,9.60
2018,03,01,04,11,9.60
2018,03,01,04,12,8.10
2018,03,01,04,13,9.60
2018,03,01,04,14,8.10
2018,03,01,04,15,6.40
2018,03,01,04,16,4.80
2018,03,01,04,17,9.60
2018,03,01,04,18,8.10
2018,03,01,04,19,9.60
2018,03,01,04,20,17.70
2018,03,01,04,21,6.40
2018,03,01,04,22,4.80
2018,03,01,04,23,8.10
2018,03,01,04,24,9.60
2018,03,01,04,25,4.80
2018,03,01,04,26,4.80
2018,03,01,04,27,4.80
2018,03,01,04,28,8.10
2018,03,01,04,29,11.30
2018,03,01,04,30,3.20
2018,03,01,04,32,1.60
2018,03,01,04,33,3.20
2018,03,01,04,34,1.60
2018,03,01,04,37,1.60
2018,03,01,04,40,3.20
2018,03,01,04,41,1.60
2018,03,01,04,42,3.20
2018,03,01,04,43,1.60
2018,03,01,04,45,3.20
2018,03,01,04,46,6.40
2018,03,01,04,47,6.40
2018,03,01,04,48,3.20
2018,03,01,04,49,3.20
2018,03,01,04,50,4.80
2018,03,01,04,51,4.80
2018,03,01,04,52,3.20
2018,03,01,04,53,3.20
2018,03,01,04,55,1.60
2018,03,01,04,56,3.20
2018,03,01,04,57,4.80
2018,03,01,05,03,3.20
2018,03,01,05,07,1.60
2018,03,01,05,08,1.60
2018,03,01,05,11,1.60
2018,03,01,05,12,1.60
2018,03,01,05,14,1.60
2018,03,01,05,15,1.60
2018,03,01,05,20,1.60
2018,03,01,05,54,1.60
2018,03,01,05,56,1.60
2018,03,01,05,57,1.60
2018,03,01,06,03,3.20
2018,03,01,06,04,1.60
2018,03,01,06,05,4.80
2018,03,01,06,06,3.20
2018,03,01,06,07,1.60
2018,03,01,06,08,1.60
2018,03,01,06,09,1.60
2018,03,01,06,17,3.20
2018,03,01,06,18,3.20
2018,03,01,06,19,1.60
2018,03,01,06,28,1.60
2018,03,01,06,31,1.60
2018,03,01,06,32,1.60
2018,03,01,06,36,1.60
2018,03,01,06,41,4.80
2018,03,01,06,42,1.60
2018,03,01,06,48,1.60
2018,03,01,06,50,1.60
2018,03,01,06,51,1.60
2018,03,01,06,52,1.60
2018,03,01,06,53,1.60
2018,03,01,06,54,1.60
2018,03,01,06,55,3.20
2018,03,01,06,56,1.60
2018,03,01,06,57,3.20
2018,03,01,06,58,3.20
2018,03,01,06,59,1.60
2018,03,01,07,00,1.60
2018,03,01,07,01,1.60
2018,03,01,07,02,1.60
2018,03,01,07,03,8.10
2018,03,01,07,04,4.80
2018,03,01,07,05,6.40
2018,03,01,07,06,3.20
2018,03,01,07,07,3.20
2018,03,01,07,08,3.20
2018,03,01,07,09,1.60
2018,03,01,07,10,4.80
2018,03,01,07,11,3.20
2018,03,01,07,12,4.80
2018,03,01,07,13,4.80
2018,03,01,07,14,4.80
2018,03,01,07,15,6.40
2018,03,01,07,16,6.40
2018,03,01,07,17,6.40
2018,03,01,07,18,3.20
2018,03,01,07,19,6.40
2018,03,01,07,20,4.80
2018,03,01,07,21,1.60
2018,03,01,07,22,1.60
2018,03,01,07,23,11.30
2018,03,01,07,24,4.80
2018,03,01,07,25,8.10
2018,03,01,07,26,4.80
2018,03,01,07,27,4.80
2018,03,01,07,28,4.80
2018,03,01,07,29,8.10
2018,03,01,07,30,11.30
2018,03,01,07,31,9.60
2018,03,01,07,32,6.40
2018,03,01,07,33,6.40
2018,03,01,07,34,6.40
2018,03,01,07,35,3.20
2018,03,01,07,36,3.20
2018,03,01,07,37,4.80
2018,03,01,07,38,6.40
2018,03,01,07,39,4.80
2018,03,01,07,40,8.10
2018,03,01,07,41,8.10
2018,03,01,07,42,11.30
2018,03,01,07,43,11.30
2018,03,01,07,44,8.10
2018,03,01,07,45,4.80
2018,03,01,07,46,4.80
2018,03,01,07,47,3.20
2018,03,01,07,48,3.20
2018,03,01,07,49,1.60
2018,03,01,07,50,1.60
2018,03,01,07,51,1.60
2018,03,01,07,53,3.20
2018,03,01,07,55,4.80
2018,03,01,07,56,1.60
2018,03,01,07,57,1.60
2018,03,01,07,59,1.60
2018,03,01,08,00,1.60
2018,03,01,08,01,6.40
2018,03,01,08,02,8.10
2018,03,01,08,03,6.40
2018,03,01,08,04,11.30
2018,03,01,08,05,12.90
2018,03,01,08,06,12.90
2018,03,01,08,07,8.10
2018,03,01,08,08,9.60
2018,03,01,08,09,11.30
2018,03,01,08,10,14.50
2018,03,01,08,11,11.30
2018,03,01,08,12,11.30
2018,03,01,08,13,9.60
2018,03,01,08,14,11.30
2018,03,01,08,15,9.60
2018,03,01,08,16,9.60
2018,03,01,08,17,6.40
2018,03,01,08,18,4.80
2018,03,01,08,19,12.90
2018,03,01,08,20,12.90
2018,03,01,08,21,8.10
2018,03,01,08,22,8.10
2018,03,01,08,23,6.40
2018,03,01,08,24,4.80
2018,03,01,08,25,6.40
2018,03,01,08,26,4.80
2018,03,01,08,27,6.40
2018,03,01,08,28,12.90
2018,03,01,08,29,6.40
2018,03,01,08,30,6.40
2018,03,01,08,31,9.60
2018,03,01,08,32,4.80
2018,03,01,08,33,8.10
2018,03,01,08,34,6.40
2018,03,01,08,35,6.40
2018,03,01,08,36,9.60
2018,03,01,08,37,4.80
2018,03,01,08,38,3.20
2018,03,01,08,39,4.80
2018,03,01,08,40,9.60
2018,03,01,08,41,11.30
2018,03,01,08,42,8.10
2018,03,01,08,43,6.40
2018,03,01,08,44,6.40
2018,03,01,08,45,8.10
2018,03,01,08,46,8.10
2018,03,01,08,47,11.30
2018,03,01,08,48,11.30
2018,03,01,08,49,8.10
2018,03,01,08,50,6.40
2018,03,01,08,51,9.60
2018,03,01,08,52,9.60
2018,03,01,08,53,4.80
2018,03,01,08,54,6.40
2018,03,01,08,55,11.30
2018,03,01,08,56,11.30
2018,03,01,08,57,8.10
2018,03,01,08,58,4.80
2018,03,01,08,59,11.30
2018,03,01,09,00,11.30
2018,03,01,09,01,12.90
2018,03,01,09,02,11.30
2018,03,01,09,03,14.50
2018,03,01,09,04,9.60
2018,03,01,09,05,11.30
2018,03,01,09,06,9.60
2018,03,01,09,07,11.30
2018,03,01,09,08,8.10
2018,03,01,09,09,4.80
2018,03,01,09,10,11.30
2018,03,01,09,11,12.90
2018,03,01,09,12,9.60
2018,03,01,09,13,11.30
2018,03,01,09,14,4.80
2018,03,01,09,15,12.90
2018,03,01,09,16,19.30
2018,03,01,09,17,16.10
2018,03,01,09,18,11.30
2018,03,01,09,19,9.60
2018,03,01,09,20,6.40
2018,03,01,09,21,11.30
2018,03,01,09,22,14.50
2018,03,01,09,23,8.10
2018,03,01,09,24,8.10
2018,03,01,09,25,8.10
2018,03,01,09,26,12.90
2018,03,01,09,27,11.30
2018,03,01,09,28,12.90
2018,03,01,09,29,9.60
2018,03,01,09,30,6.40
2018,03,01,09,31,8.10
2018,03,01,09,32,14.50
2018,03,01,09,33,11.30
2018,03,01,09,34,11.30
2018,03,01,09,35,14.50
2018,03,01,09,36,14.50
2018,03,01,09,37,11.30
2018,03,01,09,38,11.30
2018,03,01,09,39,8.10
2018,03,01,09,40,6.40
2018,03,01,09,41,8.10
2018,03,01,09,42,9.60
2018,03,01,09,43,11.30
2018,03,01,09,44,12.90
2018,03,01,09,45,11.30
2018,03,01,09,46,9.60
2018,03,01,09,47,9.60
2018,03,01,09,48,11.30
2018,03,01,09,49,8.10
2018,03,01,09,50,3.20
2018,03,01,09,51,3.20
2018,03,01,09,52,1.60
2018,03,01,09,53,3.20
2018,03,01,09,54,6.40
2018,03,01,09,55,4.80
2018,03,01,09,56,8.10
2018,03,01,09,57,11.30
2018,03,01,09,58,8.10
2018,03,01,09,59,9.60
2018,03,01,10,00,9.60
2018,03,01,10,01,8.10
2018,03,01,10,02,8.10
2018,03,01,10,03,4.80
2018,03,01,10,04,4.80
2018,03,01,10,05,12.90
2018,03,01,10,06,12.90
2018,03,01,10,07,9.60
2018,03,01,10,08,11.30
2018,03,01,10,09,9.60
2018,03,01,10,10,4.80
2018,03,01,10,11,8.10
2018,03,01,10,12,9.60
2018,03,01,10,13,4.80
2018,03,01,10,14,9.60
2018,03,01,10,15,11.30
2018,03,01,10,16,4.80
2018,03,01,10,17,4.80
2018,03,01,10,18,8.10
2018,03,01,10,19,1.60
2018,03,01,10,20,6.40
2018,03,01,10,21,8.10
2018,03,01,10,22,6.40
2018,03,01,10,23,4.80
2018,03,01,10,24,8.10
2018,03,01,10,25,8.10
2018,03,01,10,26,6.40
2018,03,01,10,27,3.20
2018,03,01,10,28,4.80
2018,03,01,10,29,9.60
2018,03,01,10,30,6.40
2018,03,01,10,31,4.80
2018,03,01,10,32,9.60
2018,03,01,10,33,11.30
2018,03,01,10,34,9.60
2018,03,01,10,35,6.40
2018,03,01,10,36,6.40
2018,03,01,10,37,4.80
2018,03,01,10,38,6.40
2018,03,01,10,39,11.30
2018,03,01,10,40,8.10
2018,03,01,10,41,6.40
2018,03,01,10,42,8.10
2018,03,01,10,43,11.30
2018,03,01,10,44,9.60
2018,03,01,10,45,8.10
2018,03,01,10,46,8.10
2018,03,01,10,47,11.30
2018,03,01,10,48,6.40
2018,03,01,10,49,3.20
2018,03,01,10,50,1.60
2018,03,01,10,51,1.60
2018,03,01,10,52,8.10
2018,03,01,10,53,9.60
2018,03,01,10,54,4.80
2018,03,01,10,55,4.80
2018,03,01,10,56,8.10
2018,03,01,10,57,8.10
2018,03,01,10,58,6.40
2018,03,01,10,59,4.80
2018,03,01,11,00,4.80
2018,03,01,11,01,8.10
2018,03,01,11,02,8.10
2018,03,01,11,03,12.90
2018,03,01,11,04,9.60
2018,03,01,11,05,9.60
2018,03,01,11,06,8.10
2018,03,01,11,07,12.90
2018,03,01,11,08,11.30
2018,03,01,11,09,12.90
2018,03,01,11,10,9.60
2018,03,01,11,11,11.30
2018,03,01,11,12,8.10
2018,03,01,11,13,12.90
2018,03,01,11,14,8.10
2018,03,01,11,15,9.60
2018,03,01,11,16,4.80
2018,03,01,11,17,4.80
2018,03,01,11,18,4.80
2018,03,01,11,19,6.40
2018,03,01,11,20,14.50
2018,03,01,11,21,8.10
2018,03,01,11,22,4.80
2018,03,01,11,23,3.20
2018,03,01,11,24,6.40
2018,03,01,11,25,6.40
2018,03,01,11,26,9.60
2018,03,01,11,27,4.80
2018,03,01,11,28,1.60
2018,03,01,11,29,4.80
2018,03,01,11,30,9.60
2018,03,01,11,31,8.10
2018,03,01,11,32,12.90
2018,03,01,11,33,14.50
2018,03,01,11,34,6.40
2018,03,01,11,35,3.20
2018,03,01,11,36,8.10
2018,03,01,11,37,4.80
2018,03,01,11,38,12.90
2018,03,01,11,39,14.50
2018,03,01,11,40,8.10
2018,03,01,11,41,9.60
2018,03,01,11,42,12.90
2018,03,01,11,43,3.20
2018,03,01,11,44,9.60
2018,03,01,11,45,8.10
2018,03,01,11,46,11.30
2018,03,01,11,47,17.70
2018,03,01,11,48,12.90
2018,03,01,11,49,11.30
2018,03,01,11,50,11.30
2018,03,01,11,51,12.90
2018,03,01,11,52,12.90
2018,03,01,11,53,14.50
2018,03,01,11,54,9.60
2018,03,01,11,55,14.50
2018,03,01,11,56,11.30
2018,03,01,11,57,14.50
2018,03,01,11,58,11.30
2018,03,01,11,59,9.60
2018,03,01,12,00,16.10
2018,03,01,12,01,12.90
2018,03,01,12,02,11.30
2018,03,01,12,03,12.90
2018,03,01,12,04,16.10
2018,03,01,12,05,16.10
2018,03,01,12,06,8.10
2018,03,01,12,07,12.90
2018,03,01,12,08,17.70
2018,03,01,12,09,6.40
2018,03,01,12,10,9.60
2018,03,01,12,11,8.10
2018,03,01,12,12,8.10
2018,03,01,12,13,11.30
2018,03,01,12,14,6.40
2018,03,01,12,15,16.10
2018,03,01,12,16,14.50
2018,03,01,12,17,11.30
2018,03,01,12,18,16.10
2018,03,01,12,19,16.10
2018,03,01,12,20,12.90
2018,03,01,12,21,8.10
2018,03,01,12,22,8.10
2018,03,01,12,23,16.10
2018,03,01,12,24,16.10
2018,03,01,12,25,16.10
2018,03,01,12,26,16.10
2018,03,01,12,27,16.10
2018,03,01,12,28,9.60
2018,03,01,12,29,11.30
2018,03,01,12,30,14.50
2018,03,01,12,31,17.70
2018,03,01,12,32,12.90
2018,03,01,12,33,17.70
2018,03,01,12,34,16.10
2018,03,01,12,35,14.50
2018,03,01,12,36,17.70
2018,03,01,12,37,16.10
2018,03,01,12,38,16.10
2018,03,01,12,39,16.10
2018,03,01,12,40,22.50
2018,03,01,12,41,20.90
2018,03,01,12,42,20.90
2018,03,01,12,43,20.90
2018,03,01,12,44,24.20
2018,03,01,12,45,17.70
2018,03,01,12,46,16.10
2018,03,01,12,47,22.50
2018,03,01,12,48,22.50
2018,03,01,12,49,22.50
2018,03,01,12,50,14.50
2018,03,01,12,51,14.50
2018,03,01,12,52,12.90
2018,03,01,12,53,12.90
2018,03,01,12,54,14.50
2018,03,01,12,55,12.90
2018,03,01,12,56,8.10
2018,03,01,12,57,11.30
2018,03,01,12,58,11.30
2018,03,01,12,59,16.10
2018,03,01,13,00,14.50
2018,03,01,13,01,14.50
2018,03,01,13,02,17.70
2018,03,01,13,03,17.70
2018,03,01,13,04,17.70
2018,03,01,13,05,14.50
2018,03,01,13,06,14.50
2018,03,01,13,07,12.90
2018,03,01,13,08,11.30
2018,03,01,13,09,12.90
2018,03,01,13,10,16.10
2018,03,01,13,11,16.10
2018,03,01,13,12,16.10
2018,03,01,13,13,14.50
2018,03,01,13,14,12.90
2018,03,01,13,15,8.10
2018,03,01,13,16,17.70
2018,03,01,13,17,12.90
2018,03,01,13,18,14.50
2018,03,01,13,19,16.10
2018,03,01,13,20,16.10
2018,03,01,13,21,12.90
2018,03,01,13,22,12.90
2018,03,01,13,23,16.10
2018,03,01,13,24,14.50
2018,03,01,13,25,12.90
2018,03,01,13,26,14.50
2018,03,01,13,27,11.30
2018,03,01,13,28,17.70
2018,03,01,13,29,14.50
2018,03,01,13,30,14.50
2018,03,01,13,31,16.10
2018,03,01,13,32,16.10
2018,03,01,13,33,17.70
2018,03,01,13,34,16.10
2018,03,01,13,35,14.50
2018,03,01,13,36,16.10
2018,03,01,13,37,12.90
2018,03,01,13,38,8.10
2018,03,01,13,39,8.10
2018,03,01,13,40,9.60
2018,03,01,13,41,11.30
2018,03,01,13,42,12.90
2018,03,01,13,43,12.90
2018,03,01,13,44,8.10
2018,03,01,13,45,12.90
2018,03,01,13,46,16.10
2018,03,01,13,47,17.70
2018,03,01,13,48,14.50
2018,03,01,13,49,14.50
2018,03,01,13,50,16.10
2018,03,01,13,51,16.10
2018,03,01,13,52,16.10
2018,03,01,13,53,20.90
2018,03,01,13,54,19.30
2018,03,01,13,55,20.90
2018,03,01,13,56,14.50
2018,03,01,13,57,19.30
2018,03,01,13,58,16.10
2018,03,01,13,59,14.50
2018,03,01,14,00,24.20
2018,03,01,14,01,20.90
2018,03,01,14,02,11.30
2018,03,01,14,03,20.90
2018,03,01,14,04,22.50
2018,03,01,14,05,16.10
2018,03,01,14,06,20.90
2018,03,01,14,07,22.50
2018,03,01,14,08,16.10
2018,03,01,14,09,16.10
2018,03,01,14,10,14.50
2018,03,01,14,11,16.10
2018,03,01,14,12,16.10
2018,03,01,14,13,17.70
2018,03,01,14,14,12.90
2018,03,01,14,15,11.30
2018,03,01,14,16,17.70
2018,03,01,14,17,14.50
2018,03,01,14,18,17.70
2018,03,01,14,19,12.90
2018,03,01,14,20,22.50
2018,03,01,14,21,24.20
2018,03,01,14,22,19.30
2018,03,01,14,23,12.90
2018,03,01,14,24,20.90
2018,03,01,14,25,24.20
2018,03,01,14,26,17.70
2018,03,01,14,27,19.30
2018,03,01,14,28,16.10
2018,03,01,14,29,22.50
2018,03,01,14,30,24.20
2018,03,01,14,31,14.50
2018,03,01,14,32,17.70
2018,03,01,14,33,14.50
2018,03,01,14,34,16.10
2018,03,01,14,35,24.20
2018,03,01,14,36,25.70
2018,03,01,14,37,27.40
2018,03,01,14,38,8.10
2018,03,01,14,39,11.30
2018,03,01,14,40,16.10
2018,03,01,14,41,8.10
2018,03,01,14,42,4.80
2018,03,01,14,43,12.90
2018,03,01,14,44,22.50
2018,03,01,14,45,16.10
2018,03,01,14,46,20.90
2018,03,01,14,47,22.50
2018,03,01,14,48,16.10
2018,03,01,14,49,22.50
2018,03,01,14,50,14.50
2018,03,01,14,51,14.50
2018,03,01,14,52,14.50
2018,03,01,14,53,16.10
2018,03,01,14,54,9.60
2018,03,01,14,55,9.60
2018,03,01,14,56,11.30
2018,03,01,14,57,20.90
2018,03,01,14,58,22.50
2018,03,01,14,59,25.70
2018,03,01,15,00,24.20
2018,03,01,15,01,19.30
2018,03,01,15,02,19.30
2018,03,01,15,03,19.30
2018,03,01,15,04,14.50
2018,03,01,15,05,17.70
2018,03,01,15,06,12.90
2018,03,01,15,07,11.30
2018,03,01,15,08,11.30
2018,03,01,15,09,20.90
2018,03,01,15,10,14.50
2018,03,01,15,11,16.10
2018,03,01,15,12,20.90
2018,03,01,15,13,17.70
2018,03,01,15,14,20.90
2018,03,01,15,15,17.70
2018,03,01,15,16,16.10
2018,03,01,15,17,22.50
2018,03,01,15,18,16.10
2018,03,01,15,19,14.50
2018,03,01,15,20,14.50
2018,03,01,15,21,8.10
2018,03,01,15,22,16.10
2018,03,01,15,23,14.50
2018,03,01,15,24,20.90
2018,03,01,15,25,17.70
2018,03,01,15,26,22.50
2018,03,01,15,27,12.90
2018,03,01,15,28,14.50
2018,03,01,15,29,16.10
2018,03,01,15,30,9.60
2018,03,01,15,31,16.10
2018,03,01,15,32,24.20
2018,03,01,15,33,16.10
2018,03,01,15,34,14.50
2018,03,01,15,35,8.10
2018,03,01,15,36,11.30
2018,03,01,15,37,8.10
2018,03,01,15,38,11.30
2018,03,01,15,39,14.50
2018,03,01,15,40,16.10
2018,03,01,15,41,14.50
2018,03,01,15,42,16.10
2018,03,01,15,43,14.50
2018,03,01,15,44,14.50
2018,03,01,15,45,16.10
2018,03,01,15,46,17.70
2018,03,01,15,47,11.30
2018,03,01,15,48,14.50
2018,03,01,15,49,11.30
2018,03,01,15,50,9.60
2018,03,01,15,51,9.60
2018,03,01,15,52,12.90
2018,03,01,15,53,12.90
2018,03,01,15,54,8.10
2018,03,01,15,55,17.70
2018,03,01,15,56,17.70
2018,03,01,15,57,14.50
2018,03,01,15,58,11.30
2018,03,01,15,59,16.10
2018,03,01,16,00,11.30
2018,03,01,16,01,11.30
2018,03,01,16,02,12.90
2018,03,01,16,03,14.50
2018,03,01,16,04,11.30
2018,03,01,16,05,14.50
2018,03,01,16,06,14.50
2018,03,01,16,07,12.90
2018,03,01,16,08,11.30
2018,03,01,16,09,9.60
2018,03,01,16,10,9.60
2018,03,01,16,11,16.10
2018,03,01,16,12,12.90
2018,03,01,16,13,14.50
2018,03,01,16,14,12.90
2018,03,01,16,15,14.50
2018,03,01,16,16,14.50
2018,03,01,16,17,14.50
2018,03,01,16,18,19.30
2018,03,01,16,19,16.10
2018,03,01,16,20,8.10
2018,03,01,16,21,9.60
2018,03,01,16,22,3.20
2018,03,01,16,23,8.10
2018,03,01,16,24,9.60
2018,03,01,16,25,4.80
2018,03,01,16,26,12.90
2018,03,01,16,27,11.30
2018,03,01,16,28,14.50
2018,03,01,16,29,14.50
2018,03,01,16,30,12.90
2018,03,01,16,31,14.50
2018,03,01,16,32,12.90
2018,03,01,16,33,11.30
2018,03,01,16,34,20.90
2018,03,01,16,35,14.50
2018,03,01,16,36,11.30
2018,03,01,16,37,8.10
2018,03,01,16,38,14.50
2018,03,01,16,39,12.90
2018,03,01,16,40,9.60
2018,03,01,16,41,12.90
2018,03,01,16,42,11.30
2018,03,01,16,43,11.30
2018,03,01,16,44,12.90
2018,03,01,16,45,8.10
2018,03,01,16,46,8.10
2018,03,01,16,47,11.30
2018,03,01,16,48,16.10
2018,03,01,16,49,14.50
2018,03,01,16,50,11.30
2018,03,01,16,51,9.60
2018,03,01,16,52,16.10
2018,03,01,16,53,11.30
2018,03,01,16,54,11.30
2018,03,01,16,55,9.60
2018,03,01,16,56,9.60
2018,03,01,16,57,9.60
2018,03,01,16,58,12.90
2018,03,01,16,59,3.20
2018,03,01,17,00,3.20
2018,03,01,17,01,3.20
2018,03,01,17,02,8.10
2018,03,01,17,03,8.10
2018,03,01,17,04,6.40
2018,03,01,17,05,4.80
2018,03,01,17,06,12.90
2018,03,01,17,07,12.90
2018,03,01,17,08,6.40
2018,03,01,17,09,4.80
2018,03,01,17,10,11.30
2018,03,01,17,11,17.70
2018,03,01,17,12,8.10
2018,03,01,17,13,4.80
2018,03,01,17,14,8.10
2018,03,01,17,15,11.30
2018,03,01,17,16,3.20
2018,03,01,17,17,12.90
2018,03,01,17,18,12.90
2018,03,01,17,19,11.30
2018,03,01,17,20,8.10
2018,03,01,17,21,4.80
2018,03,01,17,22,4.80
2018,03,01,17,23,3.20
2018,03,01,17,24,3.20
2018,03,01,17,25,3.20
2018,03,01,17,26,3.20
2018,03,01,17,27,1.60
2018,03,01,17,28,3.20
2018,03,01,17,29,3.20
2018,03,01,17,30,3.20
2018,03,01,17,31,1.60
2018,03,01,17,32,6.40
2018,03,01,17,33,8.10
2018,03,01,17,34,4.80
2018,03,01,17,35,1.60
2018,03,01,17,36,4.80
2018,03,01,17,37,6.40
2018,03,01,17,38,4.80
2018,03,01,17,39,3.20
2018,03,01,17,40,3.20
2018,03,01,17,41,3.20
2018,03,01,17,42,3.20
2018,03,01,17,43,4.80
2018,03,01,17,44,4.80
2018,03,01,17,45,3.20
2018,03,01,17,46,3.20
2018,03,01,17,47,1.60
2018,03,01,17,48,3.20
2018,03,01,17,49,4.80
2018,03,01,17,50,3.20
2018,03,01,17,51,1.60
2018,03,01,17,52,3.20
2018,03,01,17,53,3.20
2018,03,01,17,54,1.60
2018,03,01,17,57,3.20
2018,03,01,17,59,1.60
2018,03,01,18,01,3.20
2018,03,01,18,02,3.20
2018,03,01,18,03,4.80
2018,03,01,18,04,3.20
2018,03,01,18,09,1.60
2018,03,01,18,10,1.60
2018,03,01,18,11,3.20
2018,03,01,18,12,3.20
2018,03,01,18,13,3.20
2018,03,01,18,14,3.20
2018,03,01,18,15,1.60
2018,03,01,18,16,1.60
2018,03,01,18,17,1.60
2018,03,01,18,18,1.60
2018,03,01,18,19,1.60
2018,03,01,18,20,3.20
2018,03,01,18,21,3.20
2018,03,01,18,22,4.80
2018,03,01,18,23,3.20
2018,03,01,18,24,3.20
2018,03,01,18,25,3.20
2018,03,01,18,26,3.20
2018,03,01,18,27,4.80
2018,03,01,18,28,3.20
2018,03,01,18,29,3.20
2018,03,01,18,30,4.80
2018,03,01,18,31,4.80
2018,03,01,18,32,4.80
2018,03,01,18,33,4.80
2018,03,01,18,34,4.80
2018,03,01,18,35,4.80
2018,03,01,18,36,4.80
2018,03,01,18,37,4.80
2018,03,01,18,38,4.80
2018,03,01,18,39,4.80
2018,03,01,18,40,8.10
2018,03,01,18,41,4.80
2018,03,01,18,42,4.80
2018,03,01,18,43,4.80
2018,03,01,18,44,4.80
2018,03,01,18,45,4.80
2018,03,01,18,46,3.20
2018,03,01,18,47,6.40
2018,03,01,18,48,6.40
2018,03,01,18,49,4.80
2018,03,01,18,50,4.80
2018,03,01,18,51,6.40
2018,03,01,18,52,3.20
2018,03,01,18,53,4.80
2018,03,01,18,54,3.20
2018,03,01,18,55,3.20
2018,03,01,18,56,3.20
2018,03,01,18,57,1.60
2018,03,01,18,58,1.60
2018,03,01,18,59,1.60
2018,03,01,19,00,3.20
2018,03,01,19,01,4.80
2018,03,01,19,02,4.80
2018,03,01,19,03,4.80
2018,03,01,19,04,4.80
2018,03,01,19,05,6.40
2018,03,01,19,06,4.80
2018,03,01,19,07,4.80
2018,03,01,19,08,4.80
2018,03,01,19,09,4.80
2018,03,01,19,10,4.80
2018,03,01,19,11,4.80
2018,03,01,19,12,4.80
2018,03,01,19,13,4.80
2018,03,01,19,14,1.60
2018,03,01,19,15,3.20
2018,03,01,19,16,3.20
2018,03,01,19,17,3.20
2018,03,01,19,18,3.20
2018,03,01,19,19,4.80
2018,03,01,19,20,4.80
2018,03,01,19,21,4.80
2018,03,01,19,22,3.20
2018,03,01,19,23,3.20
2018,03,01,19,24,3.20
2018,03,01,19,25,3.20